Location: Isle of Man Observatory
(54.1776°N, 4.6264°W)
Time: 13:26:00
(UTC+01:00)

N. Korean satellite - Visible Passes

Search period start: 23 March 2017 00:00
Search period end: 02 April 2017 01:00
Orbit: 461 x 520 km, 97.2° (Epoch: 21 March)

Date Brightness Start Highest point End Pass type
(mag) Time Alt. Az. Time Alt. Az. Time Alt. Az.
23 Mar 8.9 20:08:56 10° SSW 20:12:06 29° W 20:15:16 10° NNW visible
26 Mar 9.7 21:35:56 10° SW 21:38:16 16° W 21:40:35 10° NW visible
30 Mar 9.8 21:39:34 10° SW 21:41:40 15° W 21:43:45 10° NW visible
